Date/        TT  R.A.(2000) Decl.     Delta   r     Daily motion  Mag.  Moon Age
              h    h  m       。  ,                      ,  / PA 。  m1      。
2009 Sept. 1 18  07 18.59  +41 30.0   2.437  2.053    31.9 /  66  17.6  151  .92
           2 18  07 21.19  +41 42.8   2.432  2.057    31.9 /  66  17.6  142  .97
           3 18  07 23.80  +41 55.5   2.427  2.062    31.8 /  66  17.6  131  .99
           4 18  07 26.42  +42 08.2   2.422  2.066    31.7 /  66  17.6  120 1.00
           5 18  07 29.03  +42 20.9   2.417  2.071    31.6 /  66  17.6  109  .99
           6 18  07 31.65  +42 33.5   2.412  2.075    31.5 /  66  17.6   97  .96
           7 18  07 34.27  +42 46.0   2.407  2.080    31.4 /  66  17.6   86  .90
           8 18  07 36.90  +42 58.5   2.402  2.084    31.3 /  66  17.6   74  .83
           9 18  07 39.52  +43 11.0   2.397  2.089    31.3 /  66  17.6   62  .75
          10 18  07 42.15  +43 23.4   2.391  2.093    31.2 /  66  17.6   51  .65
          11 18  07 44.78  +43 35.7   2.386  2.098    31.1 /  66  17.6   39  .54
          12 18  07 47.41  +43 48.1   2.381  2.103    31.0 /  66  17.6   29  .43
          13 18  07 50.04  +44 00.3   2.376  2.107    30.9 /  66  17.6   23  .32
          14 18  07 52.68  +44 12.6   2.371  2.112    30.8 /  66  17.6   23  .21
          15 18  07 55.31  +44 24.8   2.366  2.117    30.7 /  66  17.6   31  .12
          16 18  07 57.95  +44 37.0   2.361  2.122    30.6 /  66  17.6   42  .06
          17 18  08 00.58  +44 49.1   2.356  2.126    30.5 /  66  17.6   54  .02
          18 18  08 03.22  +45 01.2   2.351  2.131    30.4 /  66  17.6   67  .00
          19 18  08 05.86  +45 13.3   2.346  2.136    30.3 /  66  17.6   79  .01
          20 18  08 08.49  +45 25.3   2.341  2.141    30.2 /  66  17.7   91  .05
          21 18  08 11.13  +45 37.4   2.335  2.145    30.1 /  66  17.7  103  .11
          22 18  08 13.76  +45 49.4   2.330  2.150    30.0 /  66  17.7  115  .18
          23 18  08 16.40  +46 01.4   2.325  2.155    29.9 /  66  17.7  125  .27
          24 18  08 19.03  +46 13.4   2.320  2.160    29.8 /  66  17.7  135  .36
          25 18  08 21.66  +46 25.3   2.315  2.165    29.7 /  66  17.7  144  .46
          26 18  08 24.30  +46 37.3   2.310  2.170    29.6 /  66  17.7  150  .55
          27 18  08 26.93  +46 49.2   2.305  2.175    29.4 /  66  17.7  153  .64
          28 18  08 29.55  +47 01.1   2.300  2.180    29.3 /  66  17.7  152  .73
          29 18  08 32.18  +47 13.0   2.295  2.184    29.2 /  66  17.7  147  .81
          30 18  08 34.80  +47 24.9   2.290  2.189    29.1 /  66  17.7  139  .88
     Oct.  1 18  08 37.42  +47 36.8   2.285  2.194    29.0 /  66  17.7  130  .94
NAKANO
         **** Don't distribute anyone except personal use only ****
           (C) Copyright 2009 Orbit.Astro.Assoc./ComputingSection
write mail from CFAD0::NAKANO on 2009-09-12 04:29:55(JST).
 
◎P/Pigott-LINEAR-Kowalskiの連結軌道

 メイヤーは,1995年に撮影されていたUSNO AAORのプレート上にこの彗星の過去の
イメージを見つけました.彗星は,高速で移動していたとのことです.なお,この年
の彗星の近日点通過は1995年12月25日でした.

0226   19951225.63569232  1.9219391455 0.4800341322 356.93527278  55.25399286  4
6.22092839 19951229. -2.02699012    0.0579227691  P/Pigott-LINEAR-Kowalski      
14.5  5N  12.0 10N  163   1995-2009   0.67 d0.01   NK1827  09n          M_v 2009
0911(703)
0226   20030201.24929819  1.9157221527 0.4807858100 357.08179041  55.19388021  4
6.26197354 20030210. -2.02699012    0.0579227691  P/Pigott-LINEAR-Kowalski2003A1
14.5  5N  12.0 10N  163   1995-2009   0.67 d0.01   NK1827  09n          M_v 2009
0911(703)
0226   20090511.22647493  1.7691608105 0.5299073420 340.94957528  54.07098395  4
4.02357672 20090509. -2.02699012    0.0579227691  P/Pigott-LINEAR-Kowalski2009R2
14.5  5N  12.5 10N  163   1995-2009   0.67 d0.01   NK1827  09n          M_v 2009
0911(703)

    P/1783 W1 = 2003 A1 = 2009 R2 (Pigott-LINEAR-Kowalski)
Epoch 2009 May 9.0 TT = JDT 2454960.5  
T 2009 May 11.22647 TT                                  Nakano
q   1.7691608            (2000.0)            P               Q
n   0.13499830     Peri.  340.94958     +0.74469191     -0.35883524
a   3.7634300      Node    54.07098     +0.66611309     +0.34710439
e   0.5299073      Incl.   44.02358     +0.04156089     +0.86646166
P   7.30 (+/- 0.01 day)
From 163 observations 1995-2009, mean residual 0".67.
   Nongravitational parameters A1 = -2.03 +/- 0.41, A2 = +0.0579 +/- 0.0046.
   The 1995 observations were found by Maik Meyer on the frame taken
   by USNO AAOR.
NAKANO
         **** Don't distribute anyone except personal use only ****
           (C) Copyright 2009 Orbit.Astro.Assoc./ComputingSection
write mail from CFAD0::NAKANO on 2009-09-13 05:39:09(JST).
 

    P/2003 A1 

Epoch 2003 Feb. 10.0 TT = JDT 2452680.5  

T 2003 Feb. 1.24044 TT                                  Nakano

q   1.9158180            (2000.0)            P               Q

n   0.13895345     Peri.  357.07773     +0.59902094     -0.53781929

a   3.6916725      Node    55.19234     +0.74853265     +0.11299094

e   0.4810433      Incl.   46.26197     +0.28438142     +0.83545405

P   7.09 (+/- 0.18 day)

From 144 observations 2003 Jan. 5-Apr. 6, mean residual 0".62.



NAKANO

         **** Don't distribute anyone except personal use only ****

                (C) Copyright 2003 OAA/ComputingSection

write mail from CFAD0::NAKANO on 2003-04-29 01:22:29(JST).

 

    P/2003 A1                                                             

T 2003 Feb. 1.22408 TT                                  Nakano

q   1.9158558            (2000.0)            P               Q

n   0.13892641     Peri.  357.07036     +0.59909879     -0.53773115

a   3.6921514      Node    55.19169     +0.74851224     +0.11308586

e   0.4811004      Incl.   46.26257     +0.28427112     +0.83549793

P   7.09 (+/- 0.52 day)

From 126 observations 2003 Jan. 5-Mar. 14.



NAKANO

         **** Don't distribute anyone except personal use only ****

                (C) Copyright 2003 OAA/ComputingSection

write mail from CFAD0::NAKANO on 2003-03-20 00:36:21(JST).

 



     Comet has made 33 revolutions during 1783 - 2003.  Orbit is computed 

from 89 observations except fifty-five observations which were made at near

perihelion (2003 Jan. 15 - Feb. 10) and also 1783 observations were made

from a published orbit.

     Note, To confirm the identification of D/1783 W1 and P/2003 A1,

former two linked orbits are better than this linkage.  One is

gravitational solution (OAA/CS EMES published on 2003 Jan. 18) and

another one is non-gravitational solution (OAA/CS EMES published on

Jan. 29).



    P/1783 W1 (Pigott) = P/2003 A1 

Epoch 1783 Nov. 10.0 TT = JDT 2372600.5  

T 1783 Nov. 15.62169 TT                                 Nakano

q   1.4753635            (2000.0)            P               Q

n   0.15836160     Peri.  351.66631     +0.60722716     -0.50475951

a   3.3835256      Node    58.15276     +0.76425392     +0.15991956

e   0.5639567      Incl.   46.24732     +0.21723519     +0.84831808

P   6.22 (+/- 0.10 day)



Epoch 2003 Feb. 10.0 TT = JDT 2452680.5  

T 2003 Feb. 1.51752 TT                                  Nakano

q   1.9124233            (2000.0)            P               Q

n   0.14288622     Peri.  357.20541     +0.59705587     -0.53961387

a   3.6236187      Node    55.24721     +0.74930510     +0.11089851

e   0.4722338      Incl.   46.25759     +0.28647191     +0.83457678

P   6.90 (+/- 0.10 day)

From 89 observations 1783-2003, weighting mean residual 2".21.

   Nongravitational parameters A1 = -4.18 +/- 0.29, A2 = +1.3086 +/- 0.0788.

Residuals in seconds of arc (or two decimals in units of degrees)

1783/                     030108 608  0.4-  1.7-    030128 340 (6.9+  5.1-) 

831119 500 0.42+ 0.65- Y  030108 608  0.1-  1.8-    030128 340 (5.7+  4.7-) 

831122 500 0.42+ 0.58- Y  030108 246  0.4-  0.6-    030128 340 (5.1+  7.4-) 

831125 500 0.40+ 0.49- Y  030108 246  0.7+  1.4-    030128 340 (5.5+  2.4-) 

831128 500 0.37+ 0.37- Y  030108 246  0.1+  1.4-    030129 J95 (3.2+  4.1-) 

831201 500 0.34+ 0.25- Y  030108 246  0.7-  1.4-    030129 J95 (3.3+  3.7-) 

831204 500 0.29+ 0.13- Y  030108 246  0.5+  1.2-    030201 349 (4.0+  4.4-) 

831207 500 0.25+ 0.01- Y  030108 246  0.1+  1.3-    030201 349 (4.4+  3.6-) 

831210 500 0.21+ 0.11+ Y  030108 557  1.1+  0.6-    030201 349 (4.8+  3.2-) 

831213 500 0.16+ 0.21+ Y  030108 557  0.5+  1.2-    030201 215 (3.1+  3.7-) 

831216 500 0.12+ 0.31+ Y  030108 557  0.1-  1.5-    030201 J95 (3.6+  3.7-) 

831219 500 0.09+ 0.40+ Y  030108 557  0.4+  0.9-    030201 J95 (3.3+  4.1-) 

831221 500 0.07+ 0.45+ Y  030108 557  0.2+  1.8-    030203 360 (3.6+  4.0-) 

2003/                     030108 176  1.4+  1.1-    030203 360 (3.9+  4.1-) 

030105 704  0.7-  2.2+    030108 176  0.6+  2.1-    030204 608 (3.3+  4.0-) 

030105 704  1.5-  1.6+    030108 176 (0.0   3.1-)   030204 608 (4.6+  3.8-) 

030105 704  1.0-  2.0+    030111 349  1.8+  2.3-    030204 608 (2.9+  4.8-) 

030106 446  0.5-  0.1-    030111 349  0.8+  1.9-    030204 608 (3.9+  4.5-) 

030106 446  0.8-  0.4-    030111 213  1.7+  1.9-    030204 608 (2.9+  4.9-) 

030106 446  0.0   0.1+    030111 213  1.5+  2.5-    030204 608 (4.3+  3.9-) 

030106 446  0.8-  0.1+    030115 448 (2.9+  4.1-)   030210 699 (2.9+  3.2-) 

030106 446  1.2-  0.1+    030115 448 (3.3+  3.7-)   030210 699 (2.9+  2.8-) 

030106 446  0.2-  0.6+    030115 448 (3.2+  3.9-)   030210 699 (3.0+  2.2-) 

030106 448  0.1-  0.2-    030116 204 (3.3+  3.5-)   030210 699 (3.2+  2.4-) 

030106 670 (0.0   3.1+)   030116 204 (2.4+  3.6-)   030211 608  1.8+  1.9-  

030106 448  1.9-  0.9-    030116 204 (3.0+  3.9-)   030211 608  1.9+  2.2-  

030106 670 (1.2-  3.6+)   030116 204 (2.7+  4.0-)   030216 J95  0.2+  1.4-  

030106 448  0.3-  0.3-    030117 448 (3.7+  3.6-)   030216 J95  0.7+  0.7-  

030106 474  0.8+  0.2+    030117 448 (3.9+  3.5-)   030218 J95  1.0+  0.6-  

030106 474  1.1+  0.9+    030117 448 (3.1+  3.8-)   030218 J95  0.1+  0.6-  

